| time (UTC) | temp C | wind direction | speed KPH | gust KPH | rain 1hr cm | rain 24hr cm | rain mn cm | humidity % | barometer mb |
| 20260502235048 | 20 | 116 | 14.5 | 20.9 | 0.03 | 0.05 | 0.05 | 81 | 1012.6 |
| 20260502234547 | 20 | 113 | 12.9 | 19.3 | 0.03 | 0.05 | 0.05 | 81 | 1012.5 |
| 20260502234046 | 20 | 106 | 11.3 | 19.3 | 0.03 | 0.05 | 0.05 | 81 | 1012.5 |
| 20260502233546 | 20 | 88 | 11.3 | 17.7 | 0.03 | 0.05 | 0.05 | 81 | 1012.4 |
| 20260502233046 | 20 | 86 | 8.0 | 17.7 | 0.03 | 0.05 | 0.05 | 83 | 1012.4 |
| 20260502232545 | 20 | 107 | 9.7 | 17.7 | 0.03 | 0.05 | 0.05 | 83 | 1012.3 |
| 20260502232046 | 20 | 119 | 8.0 | 16.1 | 0.03 | 0.05 | 0.05 | 85 | 1012.4 |
| 20260502231607 | 20 | 128 | 9.7 | 14.5 | 0.03 | 0.05 | 0.05 | 85 | 1012.4 |
| 20260502231045 | 20 | 133 | 8.0 | 14.5 | 0.03 | 0.05 | 0.05 | 85 | 1012.3 |
| 20260502230545 | 20 | 127 | 8.0 | 14.5 | 0.03 | 0.05 | 0.05 | 85 | 1012.3 |
| 20260502230045 | 20 | 118 | 8.0 | 17.7 | 0.03 | 0.05 | 0.05 | 85 | 1012.4 |
| 20260502225545 | 20 | 118 | 11.3 | 17.7 | 0.05 | 0.05 | 0.05 | 84 | 1012.4 |
| 20260502225044 | 20 | 116 | 9.7 | 16.1 | 0.03 | 0.03 | 0.03 | 85 | 1012.3 |
| 20260502224554 | 20 | 106 | 4.8 | 9.7 | 0.03 | 0.03 | 0.03 | 86 | 1012.3 |
| 20260502224044 | 20 | 99 | 4.8 | 11.3 | 0.03 | 0.03 | 0.03 | 86 | 1012.3 |
| 20260502223544 | 20 | 74 | 4.8 | 12.9 | 0.03 | 0.03 | 0.03 | 85 | 1012.3 |
| 20260502223044 | 20 | 57 | 6.4 | 12.9 | 0.03 | 0.03 | 0.03 | 85 | 1012.4 |
| 20260502222544 | 21 | 100 | 6.4 | 11.3 | 0.03 | 0.03 | 0.03 | 85 | 1012.4 |
| 20260502222042 | 21 | 87 | 4.8 | 9.7 | 0.03 | 0.03 | 0.03 | 85 | 1012.5 |
| 20260502221546 | 21 | 119 | 4.8 | 12.9 | 0.03 | 0.03 | 0.03 | 84 | 1012.5 |
| 20260502221042 | 21 | 119 | 8.0 | 12.9 | 0.03 | 0.03 | 0.03 | 83 | 1012.4 |
| 20260502220542 | 21 | 75 | 4.8 | 12.9 | 0.03 | 0.03 | 0.03 | 84 | 1012.3 |
| 20260502220048 | 20 | 140 | 4.8 | 12.9 | 0.03 | 0.03 | 0.03 | 84 | 1012.2 |
| 20260502215544 | 20 | 100 | 4.8 | 9.7 | 0.00 | 0.00 | 0.00 | 84 | 1012.2 |
| 20260502215042 | 20 | 130 | 4.8 | 9.7 | 0.00 | 0.00 | 0.00 | 85 | 1012.2 |
| 20260502214546 | 20 | 262 | 0.0 | 4.8 | 0.00 | 0.00 | 0.00 | 85 | 1012.2 |
| 20260502214041 | 20 | 257 | 1.6 | 4.8 | 0.00 | 0.00 | 0.00 | 84 | 1012.2 |
| 20260502213541 | 21 | 258 | 1.6 | 4.8 | 0.00 | 0.00 | 0.00 | 84 | 1012.0 |
| 20260502213041 | 21 | 245 | 1.6 | 6.4 | 0.00 | 0.00 | 0.00 | 82 | 1011.9 |
| 20260502212541 | 22 | 244 | 4.8 | 6.4 | 0.00 | 0.00 | 0.00 | 79 | 1011.9 |
| 20260502212041 | 22 | 186 | 1.6 | 4.8 | 0.00 | 0.00 | 0.00 | 74 | 1011.9 |
| 20260502211541 | 22 | 167 | 1.6 | 11.3 | 0.00 | 0.00 | 0.00 | 73 | 1012.1 |
| 20260502211039 | 22 | 138 | 4.8 | 11.3 | 0.00 | 0.00 | 0.00 | 73 | 1012.1 |
| 20260502210539 | 22 | 145 | 1.6 | 11.3 | 0.00 | 0.00 | 0.00 | 72 | 1012.1 |
| 20260502210041 | 22 | 116 | 6.4 | 14.5 | 0.00 | 0.00 | 0.00 | 68 | 1011.9 |
| 20260502205542 | 22 | 88 | 4.8 | 14.5 | 0.00 | 0.00 | 0.00 | 69 | 1011.9 |
| 20260502205040 | 22 | 107 | 6.4 | 14.5 | 0.00 | 0.00 | 0.00 | 70 | 1011.8 |
| 20260502204542 | 22 | 127 | 6.4 | 12.9 | 0.00 | 0.00 | 0.00 | 72 | 1011.8 |
| 20260502204038 | 22 | 199 | 1.6 | 3.2 | 0.00 | 0.00 | 0.00 | 74 | 1011.9 |
| 20260502203538 | 22 | 184 | 0.0 | 4.8 | 0.00 | 0.00 | 0.00 | 75 | 1011.8 |
| 20260502203041 | 22 | 309 | 0.0 | 8.0 | 0.00 | 0.00 | 0.00 | 76 | 1011.8 |
| 20260502202539 | 22 | 132 | 1.6 | 11.3 | 0.00 | 0.00 | 0.00 | 74 | 1011.7 |
| 20260502202037 | 22 | 192 | 6.4 | 11.3 | 0.00 | 0.00 | 0.00 | 75 | 1011.6 |
| 20260502201637 | 22 | 209 | 4.8 | 14.5 | 0.00 | 0.00 | 0.00 | 75 | 1011.5 |
| 20260502201036 | 22 | 180 | 3.2 | 11.3 | 0.00 | 0.00 | 0.00 | 75 | 1011.9 |
| 20260502200536 | 22 | 169 | 3.2 | 14.5 | 0.00 | 0.00 | 0.00 | 76 | 1011.9 |
| 20260502200037 | 22 | 222 | 3.2 | 14.5 | 0.00 | 0.00 | 0.00 | 74 | 1012.0 |
| 20260502195536 | 22 | 206 | 6.4 | 14.5 | 0.00 | 0.00 | 0.00 | 76 | 1012.0 |
| 20260502195035 | 21 | 130 | 4.8 | 8.0 | 0.00 | 0.00 | 0.00 | 78 | 1011.8 |
| 20260502194537 | 21 | 182 | 3.2 | 6.4 | 0.00 | 0.00 | 0.00 | 80 | 1011.8 |
| 20260502194036 | 21 | 195 | 0.0 | 12.9 | 0.00 | 0.00 | 0.00 | 81 | 1012.0 |
| 20260502193535 | 21 | 183 | 1.6 | 12.9 | 0.00 | 0.00 | 0.00 | 81 | 1012.0 |
| 20260502193036 | 21 | 244 | 1.6 | 11.3 | 0.00 | 0.00 | 0.00 | 80 | 1012.0 |
| 20260502192535 | 22 | 257 | 3.2 | 20.9 | 0.00 | 0.00 | 0.00 | 78 | 1012.0 |
| 20260502192034 | 22 | 247 | 9.7 | 22.5 | 0.00 | 0.00 | 0.00 | 75 | 1012.2 |
| 20260502191543 | 24 | 273 | 9.7 | 22.5 | 0.00 | 0.00 | 0.00 | 69 | 1012.1 |
| 20260502191033 | 25 | 308 | 3.2 | 32.2 | 0.00 | 0.00 | 0.00 | 67 | 1012.1 |
| 20260502190534 | 25 | 311 | 9.7 | 32.2 | 0.00 | 0.00 | 0.00 | 68 | 1011.9 |
| 20260502190034 | 25 | 5 | 1.6 | 8.0 | 0.00 | 0.03 | 0.00 | 70 | 1011.7 |
| 20260502185532 | 25 | 271 | 1.6 | 8.0 | 0.00 | 0.03 | 0.00 | 71 | 1011.8 |
| 20260502185035 | 25 | 312 | 3.2 | 8.0 | 0.00 | 0.03 | 0.00 | 71 | 1012.1 |
| 20260502184533 | 25 | 307 | 3.2 | 12.9 | 0.00 | 0.03 | 0.00 | 70 | 1012.1 |
| 20260502184032 | 26 | 282 | 3.2 | 12.9 | 0.00 | 0.03 | 0.00 | 69 | 1011.9 |
| 20260502183534 | 26 | 232 | 4.8 | 14.5 | 0.00 | 0.03 | 0.00 | 67 | 1012.0 |
| 20260502183034 | 27 | 307 | 8.0 | 14.5 | 0.00 | 0.03 | 0.00 | 63 | 1012.2 |
| 20260502182533 | 28 | 17 | 6.4 | 22.5 | 0.00 | 0.03 | 0.00 | 54 | 1012.2 |
| 20260502182030 | 28 | 69 | 3.2 | 24.1 | 0.00 | 0.03 | 0.00 | 57 | 1012.0 |
| 20260502181529 | 27 | 134 | 11.3 | 24.1 | 0.00 | 0.03 | 0.00 | 57 | 1011.9 |
| 20260502181028 | 27 | 99 | 12.9 | 20.9 | 0.00 | 0.03 | 0.00 | 57 | 1012.1 |
| 20260502180530 | 27 | 65 | 11.3 | 24.1 | 0.00 | 0.03 | 0.00 | 58 | 1012.3 |
| 20260502164015 | 26 | 96 | 3.2 | 6.4 | 0.00 | 0.03 | 0.00 | 63 | 1013.1 |
| 20260502163516 | 26 | 9 | 1.6 | 6.4 | 0.00 | 0.03 | 0.00 | 64 | 1013.1 |
| 20260502163027 | 26 | 343 | 1.6 | 6.4 | 0.00 | 0.03 | 0.00 | 62 | 1013.1 |
| 20260502162516 | 26 | 76 | 1.6 | 6.4 | 0.00 | 0.03 | 0.00 | 63 | 1013.4 |
| 20260502162015 | 26 | 309 | 0.0 | 6.4 | 0.00 | 0.03 | 0.00 | 62 | 1013.5 |
| 20260502161517 | 26 | 5 | 0.0 | 4.8 | 0.00 | 0.03 | 0.00 | 63 | 1013.5 |
| 20260502161021 | 26 | 341 | 0.0 | 20.9 | 0.00 | 0.03 | 0.00 | 63 | 1013.6 |
| 20260502160514 | 26 | 80 | 6.4 | 20.9 | 0.00 | 0.03 | 0.00 | 62 | 1013.4 |
| 20260502160136 | 26 | 96 | 11.3 | 20.9 | 0.00 | 0.03 | 0.00 | 62 | 1013.4 |
| 20260502152007 | 25 | 115 | 6.4 | 29.0 | 0.00 | 0.03 | 0.00 | 66 | 1013.8 |
| 20260502151507 | 25 | 40 | 16.1 | 29.0 | 0.00 | 0.03 | 0.00 | 65 | 1013.9 |
| 20260502151005 | 25 | 67 | 12.9 | 29.0 | 0.00 | 0.03 | 0.00 | 66 | 1013.9 |
| 20260502150502 | 25 | 58 | 17.7 | 29.0 | 0.00 | 0.03 | 0.00 | 68 | 1014.1 |
| 20260502130529 | 22 | 131 | 3.2 | 12.9 | 0.00 | 0.03 | 0.00 | 80 | 1013.1 |
| 20260502123522 | 20 | 96 | 4.8 | 14.5 | 0.00 | 0.03 | 0.00 | 85 | 1012.8 |
| 20260502123030 | 20 | 126 | 4.8 | 8.0 | 0.00 | 0.03 | 0.00 | 87 | 1012.9 |
| 20260502122519 | 19 | 107 | 0.0 | 3.2 | 0.00 | 0.03 | 0.00 | 88 | 1012.8 |
| 20260502122024 | 19 | 74 | 1.6 | 4.8 | 0.00 | 0.03 | 0.00 | 88 | 1012.8 |
| 20260502121518 | 19 | 74 | 1.6 | 4.8 | 0.00 | 0.03 | 0.00 | 89 | 1012.9 |
| 20260502121017 | 19 | 95 | 0.0 | 3.2 | 0.00 | 0.03 | 0.00 | 89 | 1012.9 |
| 20260502120519 | 19 | 95 | 0.0 | 1.6 | 0.00 | 0.03 | 0.00 | 89 | 1013.0 |
| 20260502115520 | 19 | 95 | 0.0 | 3.2 | 0.00 | 0.03 | 0.00 | 89 | 1013.1 |
| 20260502115018 | 19 | 95 | 0.0 | 0.0 | 0.00 | 0.03 | 0.00 | 89 | 1013.3 |
| 20260502114514 | 19 | 98 | 0.0 | 1.6 | 0.00 | 0.03 | 0.00 | 89 | 1013.3 |
| 20260502114012 | 19 | 98 | 0.0 | 3.2 | 0.00 | 0.03 | 0.00 | 89 | 1013.3 |
| 20260502113511 | 19 | 98 | 0.0 | 3.2 | 0.00 | 0.03 | 0.00 | 88 | 1013.2 |
| 20260502113010 | 19 | 108 | 0.0 | 3.2 | 0.00 | 0.03 | 0.00 | 89 | 1013.2 |
| 20260502112508 | 19 | 108 | 0.0 | 1.6 | 0.00 | 0.03 | 0.00 | 88 | 1013.2 |
| 20260502112010 | 19 | 109 | 0.0 | 1.6 | 0.00 | 0.03 | 0.00 | 88 | 1013.1 |
| 20260502111508 | 19 | 109 | 0.0 | 1.6 | 0.00 | 0.03 | 0.00 | 88 | 1013.0 |
| 20260502111006 | 19 | 109 | 0.0 | 3.2 | 0.00 | 0.03 | 0.00 | 88 | 1012.8 |
| 20260502110506 | 19 | 109 | 0.0 | 3.2 | 0.00 | 0.03 | 0.00 | 88 | 1012.7 |
| 20260502110007 | 19 | 109 | 1.6 | 3.2 | 0.00 | 0.03 | 0.00 | 88 | 1012.6 |
| 20260502105506 | 19 | 109 | 0.0 | 3.2 | 0.00 | 0.03 | 0.00 | 89 | 1012.6 |
| 20260502105006 | 19 | 109 | 0.0 | 3.2 | 0.00 | 0.03 | 0.00 | 88 | 1012.5 |
| 20260502104506 | 19 | 62 | 0.0 | 0.0 | 0.00 | 0.03 | 0.00 | 88 | 1012.3 |
| 20260502104008 | 19 | 62 | 0.0 | 0.0 | 0.00 | 0.03 | 0.00 | 88 | 1012.3 |
| 20260502103510 | 19 | 62 | 0.0 | 1.6 | 0.00 | 0.03 | 0.00 | 88 | 1012.3 |
| 20260502103010 | 19 | 62 | 0.0 | 1.6 | 0.00 | 0.03 | 0.00 | 88 | 1012.1 |
| 20260502102507 | 19 | 62 | 0.0 | 6.4 | 0.00 | 0.03 | 0.00 | 88 | 1012.2 |
| 20260502102010 | 19 | 62 | 0.0 | 6.4 | 0.00 | 0.03 | 0.00 | 88 | 1012.0 |
| 20260502101505 | 18 | 71 | 3.2 | 6.4 | 0.00 | 0.03 | 0.00 | 88 | 1012.0 |
| 20260502101004 | 18 | 65 | 1.6 | 4.8 | 0.00 | 0.03 | 0.00 | 89 | 1011.9 |
| 20260502100504 | 18 | 54 | 0.0 | 0.0 | 0.00 | 0.03 | 0.00 | 89 | 1011.8 |
| 20260502091502 | 19 | 54 | 0.0 | 0.0 | 0.00 | 0.03 | 0.00 | 90 | 1011.4 |
| 20260502091000 | 19 | 54 | 0.0 | 0.0 | 0.00 | 0.03 | 0.00 | 90 | 1011.4 |
| 20260502090600 | 19 | 54 | 0.0 | 0.0 | 0.00 | 0.03 | 0.00 | 90 | 1011.5 |
| 20260502071049 | 20 | 304 | 0.0 | 3.2 | 0.00 | 0.03 | 0.00 | 91 | 1012.2 |
| 20260502070548 | 20 | 304 | 0.0 | 3.2 | 0.00 | 0.03 | 0.00 | 91 | 1012.3 |
| 20260502070048 | 20 | 311 | 0.0 | 3.2 | 0.00 | 0.03 | 0.00 | 90 | 1012.3 |
| 20260502065549 | 20 | 46 | 0.0 | 1.6 | 0.00 | 0.03 | 0.00 | 90 | 1012.4 |
| 20260502065049 | 20 | 46 | 0.0 | 1.6 | 0.00 | 0.03 | 0.00 | 90 | 1012.6 |
| 20260502064547 | 20 | 46 | 0.0 | 1.6 | 0.00 | 0.03 | 0.00 | 90 | 1012.6 |
| 20260502064046 | 20 | 46 | 0.0 | 1.6 | 0.00 | 0.03 | 0.00 | 90 | 1012.7 |
| 20260502063547 | 20 | 46 | 0.0 | 1.6 | 0.00 | 0.03 | 0.00 | 90 | 1012.5 |
| 20260502063056 | 20 | 46 | 0.0 | 0.0 | 0.00 | 0.03 | 0.00 | 90 | 1012.6 |
| 20260502062545 | 20 | 46 | 0.0 | 0.0 | 0.00 | 0.03 | 0.00 | 90 | 1012.5 |
| 20260502062048 | 20 | 46 | 0.0 | 0.0 | 0.00 | 0.03 | 0.00 | 89 | 1012.5 |
| 20260502061544 | 20 | 46 | 0.0 | 1.6 | 0.00 | 0.03 | 0.00 | 89 | 1012.6 |
| 20260502061047 | 20 | 46 | 0.0 | 1.6 | 0.00 | 0.03 | 0.00 | 90 | 1012.5 |
| 20260502060544 | 20 | 46 | 0.0 | 3.2 | 0.00 | 0.03 | 0.00 | 90 | 1012.6 |
| 20260502060044 | 20 | 46 | 0.0 | 3.2 | 0.00 | 0.03 | 0.03 | 89 | 1012.8 |
| 20260502055542 | 20 | 350 | 0.0 | 1.6 | 0.00 | 0.03 | 0.03 | 89 | 1012.8 |
| 20260502055043 | 20 | 350 | 0.0 | 1.6 | 0.00 | 0.03 | 0.03 | 89 | 1013.0 |
| 20260502054542 | 20 | 304 | 0.0 | 3.2 | 0.00 | 0.03 | 0.03 | 89 | 1013.1 |
| 20260502054043 | 20 | 295 | 0.0 | 3.2 | 0.00 | 0.03 | 0.03 | 89 | 1013.1 |
| 20260502053541 | 20 | 296 | 0.0 | 3.2 | 0.00 | 0.03 | 0.03 | 89 | 1013.2 |
| 20260502053042 | 20 | 302 | 0.0 | 3.2 | 0.00 | 0.03 | 0.03 | 89 | 1013.3 |
| 20260502052541 | 20 | 302 | 0.0 | 6.4 | 0.00 | 0.03 | 0.03 | 89 | 1013.5 |
| 20260502052041 | 20 | 294 | 1.6 | 6.4 | 0.00 | 0.03 | 0.03 | 89 | 1013.5 |
| 20260502051540 | 20 | 263 | 0.0 | 4.8 | 0.00 | 0.03 | 0.03 | 89 | 1013.8 |
| 20260502051040 | 20 | 302 | 0.0 | 4.8 | 0.00 | 0.03 | 0.03 | 89 | 1013.9 |
| 20260502050540 | 20 | 317 | 1.6 | 4.8 | 0.00 | 0.03 | 0.03 | 89 | 1013.9 |
| 20260502050040 | 20 | 305 | 1.6 | 6.4 | 0.00 | 0.03 | 0.03 | 89 | 1014.1 |
| 20260502045541 | 20 | 298 | 1.6 | 6.4 | 0.00 | 0.03 | 0.03 | 89 | 1014.2 |
| 20260502045041 | 20 | 325 | 0.0 | 0.0 | 0.00 | 0.03 | 0.03 | 88 | 1014.2 |
| 20260502044542 | 20 | 325 | 0.0 | 0.0 | 0.00 | 0.03 | 0.03 | 88 | 1014.0 |
| 20260502044041 | 20 | 325 | 0.0 | 1.6 | 0.00 | 0.03 | 0.03 | 88 | 1013.9 |
| 20260502043538 | 20 | 325 | 0.0 | 1.6 | 0.00 | 0.03 | 0.03 | 88 | 1013.9 |
| 20260502043040 | 20 | 325 | 0.0 | 0.0 | 0.00 | 0.03 | 0.03 | 88 | 1013.7 |
| 20260502042538 | 20 | 325 | 0.0 | 1.6 | 0.00 | 0.03 | 0.03 | 88 | 1013.7 |
| 20260502042038 | 20 | 325 | 0.0 | 1.6 | 0.00 | 0.03 | 0.03 | 88 | 1013.8 |
| 20260502041538 | 20 | 325 | 0.0 | 1.6 | 0.00 | 0.03 | 0.03 | 88 | 1013.8 |
| 20260502041037 | 20 | 325 | 0.0 | 3.2 | 0.00 | 0.03 | 0.03 | 87 | 1013.8 |
| 20260502040537 | 20 | 325 | 0.0 | 3.2 | 0.00 | 0.03 | 0.03 | 88 | 1013.8 |
| 20260502040037 | 20 | 5 | 0.0 | 3.2 | 0.00 | 0.03 | 0.03 | 88 | 1013.7 |
| 20260502035536 | 20 | 319 | 0.0 | 6.4 | 0.00 | 0.03 | 0.03 | 88 | 1013.7 |
| 20260502035036 | 20 | 292 | 1.6 | 6.4 | 0.00 | 0.03 | 0.03 | 88 | 1013.7 |
| 20260502034536 | 20 | 323 | 1.6 | 8.0 | 0.00 | 0.03 | 0.03 | 88 | 1013.7 |
| 20260502034035 | 20 | 311 | 3.2 | 8.0 | 0.00 | 0.03 | 0.03 | 88 | 1013.8 |
| 20260502033539 | 20 | 316 | 3.2 | 4.8 | 0.00 | 0.03 | 0.03 | 88 | 1013.8 |
| 20260502033043 | 20 | 310 | 1.6 | 4.8 | 0.00 | 0.03 | 0.03 | 88 | 1013.8 |
| 20260502032535 | 20 | 355 | 0.0 | 4.8 | 0.00 | 0.03 | 0.03 | 88 | 1014.0 |
| 20260502032035 | 20 | 319 | 1.6 | 6.4 | 0.00 | 0.03 | 0.03 | 88 | 1014.1 |
| 20260502031535 | 20 | 333 | 1.6 | 6.4 | 0.00 | 0.03 | 0.03 | 88 | 1014.0 |
| 20260502031035 | 20 | 311 | 1.6 | 9.7 | 0.00 | 0.03 | 0.03 | 88 | 1014.0 |
| 20260502030535 | 20 | 310 | 4.8 | 9.7 | 0.00 | 0.03 | 0.03 | 88 | 1014.0 |
| 20260502030035 | 20 | 314 | 3.2 | 6.4 | 0.00 | 0.03 | 0.03 | 88 | 1014.0 |
| 20260502025534 | 20 | 318 | 3.2 | 6.4 | 0.00 | 0.03 | 0.03 | 88 | 1014.0 |
| 20260502025036 | 20 | 333 | 1.6 | 8.0 | 0.00 | 0.03 | 0.03 | 88 | 1014.0 |
| 20260502024533 | 20 | 312 | 3.2 | 8.0 | 0.00 | 0.03 | 0.03 | 87 | 1014.0 |
| 20260502024032 | 20 | 298 | 1.6 | 4.8 | 0.00 | 0.03 | 0.03 | 87 | 1013.7 |
| 20260502023532 | 20 | 311 | 1.6 | 4.8 | 0.00 | 0.03 | 0.03 | 87 | 1013.5 |
| 20260502023031 | 20 | 317 | 1.6 | 6.4 | 0.00 | 0.03 | 0.03 | 87 | 1013.5 |
| 20260502022533 | 20 | 304 | 1.6 | 4.8 | 0.00 | 0.03 | 0.03 | 87 | 1013.5 |
| 20260502022032 | 20 | 300 | 0.0 | 4.8 | 0.00 | 0.03 | 0.03 | 88 | 1013.3 |
| 20260502021528 | 20 | 312 | 1.6 | 4.8 | 0.00 | 0.03 | 0.03 | 88 | 1013.3 |
| 20260502021028 | 20 | 301 | 0.0 | 4.8 | 0.00 | 0.03 | 0.03 | 88 | 1013.3 |
| 20260502020527 | 20 | 295 | 1.6 | 4.8 | 0.00 | 0.03 | 0.03 | 88 | 1013.1 |
| 20260502020025 | 20 | 298 | 1.6 | 4.8 | 0.00 | 0.03 | 0.03 | 88 | 1012.8 |
| 20260502015525 | 20 | 290 | 3.2 | 6.4 | 0.00 | 0.03 | 0.03 | 88 | 1012.8 |
| 20260502015024 | 20 | 315 | 1.6 | 6.4 | 0.00 | 0.03 | 0.03 | 89 | 1012.5 |
| 20260502014523 | 20 | 317 | 0.0 | 3.2 | 0.00 | 0.03 | 0.03 | 89 | 1012.4 |
| 20260502014022 | 20 | 330 | 0.0 | 3.2 | 0.00 | 0.03 | 0.03 | 90 | 1012.3 |
| 20260502013522 | 20 | 38 | 0.0 | 3.2 | 0.00 | 0.03 | 0.03 | 90 | 1012.1 |
| 20260502013021 | 20 | 72 | 0.0 | 3.2 | 0.00 | 0.03 | 0.03 | 90 | 1012.1 |
| 20260502012521 | 20 | 355 | 0.0 | 3.2 | 0.00 | 0.03 | 0.03 | 90 | 1012.1 |
| 20260502012024 | 20 | 344 | 0.0 | 3.2 | 0.00 | 0.03 | 0.03 | 90 | 1012.1 |
| 20260502011522 | 20 | 5 | 0.0 | 3.2 | 0.00 | 0.03 | 0.03 | 90 | 1012.0 |
| 20260502011020 | 20 | 19 | 0.0 | 4.8 | 0.00 | 0.03 | 0.03 | 90 | 1012.1 |
| 20260502010522 | 20 | 330 | 0.0 | 3.2 | 0.00 | 0.03 | 0.03 | 90 | 1012.0 |
| 20260502010023 | 20 | 316 | 0.0 | 4.8 | 0.00 | 0.03 | 0.03 | 90 | 1012.1 |
| 20260502005520 | 20 | 292 | 1.6 | 4.8 | 0.00 | 0.03 | 0.03 | 90 | 1012.2 |
| 20260502005020 | 20 | 298 | 0.0 | 6.4 | 0.00 | 0.03 | 0.03 | 90 | 1012.1 |
| 20260502004541 | 20 | 291 | 1.6 | 6.4 | 0.00 | 0.03 | 0.03 | 90 | 1011.9 |
| 20260502004018 | 20 | 311 | 0.0 | 6.4 | 0.00 | 0.03 | 0.03 | 90 | 1011.8 |
| 20260502003518 | 20 | 286 | 1.6 | 6.4 | 0.00 | 0.03 | 0.03 | 89 | 1011.6 |
| 20260502003017 | 21 | 301 | 3.2 | 6.4 | 0.00 | 0.03 | 0.03 | 89 | 1011.5 |
| 20260502002517 | 21 | 311 | 1.6 | 8.0 | 0.00 | 0.03 | 0.03 | 89 | 1011.5 |
| 20260502002018 | 21 | 313 | 3.2 | 8.0 | 0.00 | 0.03 | 0.03 | 89 | 1011.3 |
| 20260502001518 | 21 | 274 | 3.2 | 8.0 | 0.00 | 0.03 | 0.03 | 88 | 1011.4 |
| 20260502001017 | 21 | 250 | 1.6 | 6.4 | 0.00 | 0.03 | 0.03 | 88 | 1011.3 |
| 20260502000516 | 21 | 287 | 1.6 | 8.0 | 0.00 | 0.03 | 0.03 | 87 | 1011.1 |
| 20260502000016 | 21 | 269 | 1.6 | 8.0 | 0.00 | 0.03 | 0.03 | 87 | 1010.9 |
| 20260501235518 | 21 | 321 | 3.2 | 8.0 | 0.00 | 0.03 | 0.03 | 87 | 1010.8 |